Medicine Lodge, KS

8:19 PM CST on December 15, 2019 (GMT -0600)
Medicine Lodge

Weather History for KP28 - October, 2019

Change the Weather History Date:

Monday, October 21, 2019

  Actual Average Record
Temperature  
Mean Temperature 52 °F 57 °F  
Max Temperature 65 °F 69 °F 93 °F (2012)
Min Temperature 38 °F 44 °F 19 °F (1910)
Degree Days  
Heating Degree Days 13 9  
Month to date heating degree days 151 128  
Since 1 July heating degree days 151 162  
Cooling Degree Days 0 1  
Month to date cooling degree days 23 37  
Year to date cooling degree days 1837 1768  
Growing Degree Days 2 (Base 50)    
Moisture  
Dew Point 23 °F    
Average Humidity 32    
Maximum Humidity 50    
Minimum Humidity 13    
Precipitation  
Precipitation 0.00 in 0.08 in 1.25 in (1906)
Month to date precipitation 1.76 2.04  
Year to date precipitation 30.34 24.49  
Snow  
Snow 0.00 in 0.00 in - ()
Month to date snowfall 0.0 0.0  
Since 1 July snowfall 0.0 0.0  
Since 1 September snowfall 0.0 0.0  
Snow Depth 0.00 in    
Sea Level Pressure  
Sea Level Pressure 29.82 in    
Wind  
Wind Speed 17 mph (NW)    
Max Wind Speed 35 mph    
Max Gust Speed 51 mph    
T = Trace of Precipitation, MM = Missing Value Source: NWS Daily Summary

Daily Weather History Graph

Daily Weather History Graph

Search for Another Location

Airport or City:

Astronomy

Oct. 21, 2019 Rise Set
Actual Time 7:47 AM CDT 6:49 PM CDT
Civil Twilight 7:21 AM CDT 7:16 PM CDT
Nautical Twilight 6:50 AM CDT 7:46 PM CDT
Astronomical Twilight 6:20 AM CDT 8:16 PM CDT
Moon 12:06 AM CDT (10/21) 3:02 PM CDT (10/21)
Length of Visible Light 11h 54m
Length of Day
11h 01m
Waning Gibbous, 48% of the Moon is Illuminated
Oct 21
Waning Gibbous
Oct 27
New
Nov 4
First Quarter
Nov 12
Full
Nov 19
Last Quarter

Hourly Weather History & Observations

Time (CDT) Temp. Windchill Dew Point Humidity Pressure Visibility Wind Dir Wind Speed Gust Speed Precip Events Conditions
12:56 AM 55.0 °F - 28.9 °F 37% 29.67 in - WNW 19.6 mph 32.2 mph N/A   Unknown
1:56 AM 53.1 °F - 28.9 °F 40% 29.66 in - NW 20.7 mph 29.9 mph N/A   Unknown
2:56 AM 51.1 °F - 30.0 °F 44% 29.68 in - NW 15.0 mph 24.2 mph N/A   Unknown
3:56 AM 50.0 °F - 30.0 °F 46% 29.70 in - NW 17.3 mph 25.3 mph N/A   Unknown
4:56 AM 50.0 °F - 30.0 °F 46% 29.73 in - WNW 18.4 mph 26.5 mph N/A   Unknown
5:56 AM 48.9 °F - 30.0 °F 48% 29.73 in - NW 18.4 mph 28.8 mph N/A   Unknown
6:56 AM 48.0 °F - 30.0 °F 50% 29.75 in - WNW 16.1 mph 27.6 mph N/A   Unknown
7:56 AM 48.0 °F - 30.0 °F 50% 29.74 in - WNW 17.3 mph 28.8 mph N/A   Unknown
8:56 AM 48.9 °F - 30.0 °F 48% 29.75 in - WNW 16.1 mph 29.9 mph N/A   Unknown
10:56 AM 57.0 °F - 28.0 °F 33% 29.79 in - NW 24.2 mph 38.0 mph N/A   Unknown
11:56 AM 60.1 °F - 19.9 °F 21% 29.78 in - WNW 31.1 mph 44.9 mph N/A   Unknown
12:56 PM 62.1 °F - 19.0 °F 19% 29.80 in - NW 29.9 mph 49.5 mph N/A   Unknown
1:56 PM 64.0 °F - 16.0 °F 16% 29.79 in - NW 27.6 mph 49.5 mph N/A   Unknown
2:56 PM 64.9 °F - 15.1 °F 15% 29.79 in - NW 25.3 mph 43.7 mph N/A   Unknown
3:56 PM 64.0 °F - 12.9 °F 14% 29.82 in - NW 19.6 mph 40.3 mph N/A   Unknown
4:56 PM 63.0 °F - 12.9 °F 14% 29.85 in - NW 26.5 mph 39.1 mph N/A   Unknown
5:56 PM 61.0 °F - 12.0 °F 15% 29.88 in - NW 13.8 mph 28.8 mph N/A   Unknown
7:56 PM 51.1 °F - 15.1 °F 24% 29.96 in - NW 8.1 mph - N/A   Unknown
8:56 PM 46.9 °F - 18.0 °F 32% 30.01 in - NNW 5.8 mph - N/A   Unknown
9:56 PM 44.1 °F 40.8 °F 19.9 °F 38% 30.04 in - NW 5.8 mph - N/A   Unknown
10:56 PM 39.0 °F 35.7 °F 21.9 °F 50% 30.07 in - NNW 4.6 mph - N/A   Unknown
11:56 PM 39.9 °F 36.7 °F 21.9 °F 49% 30.08 in - WNW 4.6 mph - N/A   Unknown